Simultaneous Nadir Overpasses (SNOs) Predictions

Prediction of SNOs between GOES-16 and TERRA Satellite Orbit:

Table of predicted SNOs for the next 14.0 days since TLE Epoch: 6/2/2018
Index Date Time (GOES-16) GOES-16 Lat,Lon TERRA Lat,Lon Distance(km) Time Diff (sec)
1 06/02/2018 03:28:28 -0.00, -75.19 0.05, -74.79 44.93 80
2 06/04/2018 03:16:18 -0.01, -75.20 0.71, -71.84 381.64 80
3 06/04/2018 15:37:34 0.01, -75.22 0.37, -77.00 202.50 80
4 06/06/2018 15:28:03 0.01, -75.23 -0.22, -74.04 135.06 80
5 06/07/2018 03:49:28 -0.01, -75.22 -0.85, -79.24 456.59 80
6 06/08/2018 15:15:53 0.01, -75.26 -0.88, -71.10 473.11 80
7 06/09/2018 03:37:17 -0.01, -75.25 -0.25, -76.28 118.45 80
8 06/11/2018 03:22:27 -0.01, -75.27 0.42, -73.34 219.99 80
9 06/11/2018 15:43:42 0.01, -75.29 0.73, -78.49 364.09 80
10 06/13/2018 15:31:32 0.01, -75.32 0.06, -75.54 25.48 80
11 06/15/2018 15:22:01 0.01, -75.35 -0.55, -72.58 313.28 80




NCC Satellite Simultaneous Nadir Overpasses (SNOs) Prediction Service
